Hourly Data Report for October 02, 2016

All times are specified in Local Standard Time (LST). Add 1 hour to adjust for Daylight Saving Time where and when it is observed.

PENTICTON A
BRITISH COLUMBIA

49°27'45.000" N
119°36'08.000" W
344.40 m
1126146
71889
YYF

Download Data

Hourly Data (October 2016)
Hourly Data Report for October 2, 2016
Temp Definition
°C
Dew Point Temp Definition
°C
Rel Hum Definition
%
Wind Dir Definition
10's deg

Wind Spd Definition
km/h
Visibility Definition
km
Stn Press Definition
kPa
Hmdx Definition


Wind Chill Definition


Weather Definition


TIME
00:00 Legend Double Dagger 4.8 2.0 82 36 1 24.1 97.50     LegendNANA
01:00 Legend Double Dagger 5.0 2.0 81 0 1 24.1 97.51     Mainly Clear
02:00 Legend Double Dagger 3.6 0.3 79 36 3 24.1 97.53     LegendNANA
03:00 Legend Double Dagger 4.0 1.7 85 3 7 24.1 97.56     LegendNANA
04:00 Legend Double Dagger 3.6 1.2 84 36 2 24.1 97.56     Mainly Clear
05:00 Legend Double Dagger 2.3 0.7 89 5 3 24.1 97.57     LegendNANA
06:00 Legend Double Dagger 3.8 1.2 83 2 4 24.1 97.60     LegendNANA
07:00 Legend Double Dagger 3.0 1.1 87 1 5 24.1 97.64     Mainly Clear
08:00 Legend Double Dagger 9.5 4.1 69 1 4 24.1 97.64     LegendNANA
09:00 Legend Double Dagger 11.8 5.3 64 6 8 24.1 97.58     LegendNANA
10:00 Legend Double Dagger 13.1 5.6 60 35 11 24.1 97.49     Mainly Clear
11:00 Legend Double Dagger 14.8 4.8 51 33 9 24.1 97.40     LegendNANA
12:00 Legend Double Dagger 16.4 4.9 46 3 8 24.1 97.29     LegendNANA
13:00 Legend Double Dagger 16.9 4.7 44 35 10 24.1 97.21     Mainly Clear
14:00 Legend Double Dagger 17.4 4.8 43 3 8 24.1 97.11     LegendNANA
15:00 Legend Double Dagger 18.0 4.0 39 36 13 24.1 97.07     LegendNANA
16:00 Legend Double Dagger 17.5 5.6 45 1 13 24.1 97.05     Mainly Clear
17:00 Legend Double Dagger 12.6 4.1 56 34 9 24.1 97.02     LegendNANA
18:00 Legend Double Dagger 9.1 3.7 69 3 7 24.1 97.02     LegendNANA
19:00 Legend Double Dagger 10.2 2.6 59 35 10 24.1 97.06     Clear
20:00 Legend Double Dagger 10.2 2.3 58 34 15 24.1 97.10     LegendNANA
21:00 Legend Double Dagger 8.3 2.1 65 35 12 24.1 97.12     LegendNANA
22:00 Legend Double Dagger 7.7 1.6 65 2 11 24.1 97.11     Clear
23:00 Legend Double Dagger 7.3 2.8 73 1 14 24.1 97.10     LegendNANA

Notes on Data Quality.

Legend

  • E = Estimated
  • M = Missing
  • NA = Not Available
  • ‡ = Partner data that is not subject to review by the National Climate Archives
Date modified: